Weather History for Juan Santamaria, Costa Rica

Change the Weather History Date:

Thursday, March 28, 2013

  Actual Average Record
Temperature  
Mean Temperature 74 °F -  
Max Temperature 82 °F 83 °F - ()
Min Temperature 67 °F 65 °F - ()
Cooling Degree Days 10    
Growing Degree Days 24 (Base 50)    
Moisture  
Dew Point 59 °F    
Average Humidity 61    
Maximum Humidity 78    
Minimum Humidity 37    
Precipitation  
Precipitation 0.00 in 0.10 in - ()
Sea Level Pressure  
Sea Level Pressure 29.99 in    
Wind  
Wind Speed 16 mph ()    
Max Wind Speed 22 mph    
Max Gust Speed 34 mph    
Visibility 7.6 miles    
Events      
T = Trace of Precipitation, MM = Missing Value Source: Averaged Metar Reports

Daily Weather History Graph

Daily Weather History Graph

Search for Another Location

Airport:

Trip Planner

Search our weather history database for the weather conditions in past years. The results will help you decide how hot, cold, wet, or windy it might be!

Date:

Astronomy

Mar. 28, 2013 Rise Set
Actual Time 5:36 AM CST 5:47 PM CST
Civil Twilight 5:15 AM CST 6:08 PM CST
Nautical Twilight 4:50 AM CST 6:32 PM CST
Astronomical Twilight 4:26 AM CST 6:57 PM CST
Moon 7:10 PM CST (3/28) 6:24 AM CST (3/28)
Length of Visible Light 12h 53m
Length of Day
12h 11m
Full, 98% of the Moon is Illuminated
Mar 28
Full
Apr 2
Last Quarter
Apr 10
New
Apr 18
First Quarter
Apr 25
Full

Hourly Weather History & Observations

Time (CST) Temp. Heat Index Dew Point Humidity Pressure Visibility Wind Dir Wind Speed Gust Speed Precip Events Conditions
12:00 AM 70 °F - 61 °F 65% 29.89 in 12 mi ESE 16.1 mph - -   Scattered Clouds
12:00 AM 69.8 °F - 60.8 °F 73% 30.05 in 6.2 mi ESE 16.1 mph - N/A   Partly Cloudy
1:00 AM 69.8 °F - 60.8 °F 73% 30.03 in 6.2 mi East 20.7 mph - N/A   Partly Cloudy
2:00 AM 68.0 °F - 60.8 °F 78% 30.01 in 6.2 mi ESE 20.7 mph - N/A   Partly Cloudy
3:00 AM 69.8 °F - 59.0 °F 68% 30.01 in 6.2 mi ESE 16.1 mph - N/A   Partly Cloudy
4:00 AM 68.0 °F - 59.0 °F 73% 30.01 in 6.2 mi ESE 16.1 mph - N/A   Partly Cloudy
5:00 AM 68.0 °F - 59.0 °F 73% 30.01 in 6.2 mi ESE 16.1 mph 28.8 mph N/A   Partly Cloudy
6:00 AM 68 °F - 59 °F 65% 29.88 in 12 mi ESE 17.3 mph - -   Scattered Clouds
6:00 AM 68.0 °F - 59.0 °F 73% 30.02 in 6.2 mi ESE 17.3 mph - N/A   Partly Cloudy
7:00 AM 73.4 °F - 59.0 °F 61% 30.04 in 6.2 mi ESE 18.4 mph - N/A   Scattered Clouds
8:00 AM 75.2 °F - 59.0 °F 57% 30.04 in 6.2 mi ESE 19.6 mph 33.4 mph N/A   Scattered Clouds
9:00 AM 79 °F - 59 °F 40% 29.89 in 12 mi ESE 18.4 mph - -   Scattered Clouds
9:00 AM 78.8 °F - 59.0 °F 51% 30.05 in 6.2 mi ESE 18.4 mph 29.9 mph N/A   Scattered Clouds
10:00 AM 78.8 °F - 57.2 °F 47% 30.06 in 6.2 mi ESE 21.9 mph 34.5 mph N/A   Scattered Clouds
11:00 AM 80.6 °F 80.8 °F 57.2 °F 45% 30.07 in 6.2 mi East 20.7 mph 32.2 mph N/A   Scattered Clouds
12:00 PM 81 °F - 59 °F 37% 29.88 in 12 mi ESE 15.0 mph - -   Scattered Clouds
12:00 PM 80.6 °F 81.1 °F 59.0 °F 48% 30.04 in 6.2 mi ESE 15.0 mph 27.6 mph N/A   Scattered Clouds
1:00 PM 78.8 °F - 60.8 °F 54% 30.03 in 6.2 mi East 18.4 mph - N/A   Scattered Clouds
2:00 PM 78.8 °F - 59.0 °F 51% 30.00 in 6.2 mi ESE 16.1 mph 31.1 mph N/A   Scattered Clouds
3:00 PM 79 °F - 59 °F 40% 29.81 in 12 mi ESE 20.7 mph - -   Scattered Clouds
3:00 PM 78.8 °F - 59.0 °F 51% 29.97 in 6.2 mi ESE 20.7 mph 32.2 mph N/A   Scattered Clouds
4:00 PM 75.2 °F - 59.0 °F 57% 29.97 in 6.2 mi ESE 18.4 mph 32.2 mph N/A   Scattered Clouds
5:00 PM 73.4 °F - 57.2 °F 57% 29.99 in 6.2 mi ESE 16.1 mph 27.6 mph N/A   Partly Cloudy
6:00 PM 72 °F - 59 °F 55% 29.88 in 12 mi SE 13.8 mph - -   Scattered Clouds
6:00 PM 71.6 °F - 59.0 °F 64% 30.00 in 6.2 mi SE 13.8 mph 25.3 mph N/A   Scattered Clouds
7:00 PM 69.8 °F - 59.0 °F 68% 30.02 in - ESE 16.1 mph 28.8 mph N/A   Clear
8:00 PM 69.8 °F - 60.8 °F 73% 30.03 in 6.2 mi SE 20.7 mph 32.2 mph N/A   Partly Cloudy
9:00 PM 70 °F - 61 °F 65% 29.87 in 12 mi ESE 17.3 mph - -   Scattered Clouds
9:00 PM 69.8 °F - 60.8 °F 73% 30.04 in 6.2 mi ESE 17.3 mph 28.8 mph N/A   Partly Cloudy
10:00 PM 69.8 °F - 60.8 °F 73% 30.05 in 6.2 mi SE 17.3 mph 28.8 mph N/A   Partly Cloudy
11:00 PM 69.8 °F - 59.0 °F 68% 30.04 in 6.2 mi ESE 15.0 mph - N/A   Partly Cloudy